Flag for Germany Weather past 2 weeks in Lippstadt, North Rhine-Westphalia, Germany

Now
52 °F

Clear.


Feels Like: 51 °F
Forecast: 44 / 64 °F
Wind: 5 mph from South

Location: Paderborn / Lippstadt

Current Time: May 22, 2015 at 10:53:46 PM

Latest Report: May 22, 2015 at 10:20 PM


Visibility: 10 mi

Pressure: 30.21 "Hg

Humidity: 67%

Dew point: 41 °F

Location of LippstadtLocation

Historic Weather in Lippstadt — Graph

°F

Lippstadt temperature yesterday

Maximum temperature yesterday: 59 °F (at 4:20 PM)
Minimum temperature yesterday: 41 °F (at 12:20 AM)
Average temperature yesterday: 50 °F

Past Weeks' High & Low Weather Summary

 TemperatureHumidityPressure
High77 °F (May 12, 12:20 PM)100% (May 16, 7:20 PM)30.33 "Hg (May 16, 7:20 PM)
Low37 °F (May 15, 3:50 AM)31% (May 11, 4:20 PM)29.62 "Hg (May 18, 9:20 PM)
Average53 °F62%30.06 "Hg
* Reported May 7 9:20 PM — May 22 9:20 PM, Lippstadt, Weather by CustomWeather, © 2015

Note: Actual official high and low records may vary slightly from our data, if they occured in-between our weather recording intervals... More about our weather records

Advertising

Lippstadt weather history for previous 24 hours

 ConditionsComfort  
Time TempWeatherWind HumidityBarometerVisibility
9:20 PM
Fri, May 22
57 °FSunny.1 mph55%30.21 "Hg10 mi
8:50 PM59 °FSunny.2 mph45%30.21 "Hg10 mi
8:20 PM63 °FSunny.3 mph39%30.18 "Hg10 mi
7:50 PM63 °FSunny.2 mph37%30.18 "Hg10 mi
7:20 PM64 °FSunny.5 mph34%30.18 "Hg10 mi
6:50 PM64 °FSunny.5 mph34%30.18 "Hg10 mi
6:20 PM64 °FSunny.3 mph32%30.21 "Hg10 mi
5:50 PM64 °FSunny.6 mph34%30.21 "Hg10 mi
5:20 PM64 °FSunny.6 mph34%30.21 "Hg10 mi
4:50 PM64 °FSunny.5 mph34%30.24 "Hg10 mi
4:20 PM64 °FSunny.5 mph34%30.24 "Hg10 mi
3:50 PM64 °FPassing clouds.5 mph34%30.24 "HgN/A
3:20 PM64 °FPassing clouds.6 mph37%30.24 "HgN/A
2:50 PM63 °FPassing clouds.3 mph39%30.27 "HgN/A
2:20 PM63 °FPassing clouds.6 mph42%30.27 "HgN/A
1:50 PM63 °FPassing clouds.5 mph39%30.27 "HgN/A
1:20 PM61 °FScattered clouds.6 mph39%30.27 "HgN/A
12:50 PM63 °FScattered clouds.5 mph37%30.30 "HgN/A
12:20 PM61 °FScattered clouds.2 mph42%30.30 "HgN/A
11:50 AM61 °FPassing clouds.6 mph45%30.30 "HgN/A
11:20 AM57 °FPassing clouds.6 mph48%30.30 "HgN/A
10:50 AM57 °FPassing clouds.3 mph44%30.33 "HgN/A
10:20 AM57 °FPassing clouds.3 mph44%30.33 "HgN/A
9:50 AM55 °FSunny.2 mph51%30.33 "Hg10 mi
9:20 AM55 °FSunny.2 mph55%30.33 "Hg10 mi
8:50 AM52 °FPassing clouds.5 mph62%30.33 "HgN/A
8:20 AM50 °FPassing clouds.3 mph71%30.33 "HgN/A
7:50 AM50 °FSunny.2 mph71%30.33 "Hg10 mi
7:20 AM48 °FSunny.2 mph76%30.33 "Hg10 mi
6:50 AM45 °FSunny.1 mph81%30.33 "Hg10 mi
6:20 AM43 °FClear.2 mph87%30.33 "Hg10 mi
5:50 AM43 °FClear.2 mph87%30.33 "Hg10 mi
5:20 AM43 °FClear.2 mph81%30.33 "Hg10 mi
4:50 AM43 °FClear.3 mph81%30.33 "Hg10 mi
4:20 AM43 °FClear.6 mph87%30.33 "Hg10 mi
3:50 AM45 °FClear.5 mph81%30.33 "Hg10 mi
3:20 AM46 °FClear.3 mph76%30.33 "Hg10 mi
2:50 AM45 °FClear.2 mph81%30.33 "Hg10 mi
2:20 AM46 °FClear.2 mph76%30.33 "Hg10 mi
1:50 AM46 °FClear.2 mph76%30.33 "Hg10 mi
1:20 AM50 °FClear.2 mph67%30.33 "Hg10 mi
12:50 AM50 °FClear.5 mph67%30.30 "Hg10 mi
12:20 AM48 °FPassing clouds.3 mph66%30.30 "HgN/A
11:20 PM
Thu, May 21
52 °FPassing clouds.1 mph62%30.30 "HgN/A
10:50 PM52 °FPassing clouds.1 mph58%30.30 "HgN/A
10:20 PM52 °FPassing clouds.3 mph58%30.30 "HgN/A
Weather by CustomWeather, © 2015

See weather overviewHow to use our weather pages